DNO456 LGAV-LGIO

Flight info

Callsign DNO456
Flight time 0h 46m
Altitude 24000
Route KOR L53 GARTA L611 IBTIN
Aircraft RJ1H/M-SDFGIRWY/LB1

Departure

Time 2026-05-06 16:48
Airport Athens Eleftherios Venizelos International Airport (LGAV)

Arrival

Time 2026-05-06 17:34
Airport Ioannina King Pyrrhus National Airport (LGIO)
Time Latitude Longitude Altitude Speed Heading
2026-05-06 16:14 37.94138 23.95336 300 ft 0 kts 218°
2026-05-06 16:18 37.94138 23.95337 300 ft 0 kts 218°
2026-05-06 16:20 37.94139 23.95337 300 ft 0 kts 218°
2026-05-06 16:35 37.94147 23.95345 304 ft 2 kts 217°
2026-05-06 16:35 37.94157 23.95354 302 ft 2 kts 217°
2026-05-06 16:35 37.94167 23.95364 302 ft 2 kts 217°
2026-05-06 16:35 37.94178 23.95374 302 ft 2 kts 217°
2026-05-06 16:36 37.94188 23.95384 301 ft 2 kts 210°
2026-05-06 16:36 37.94199 23.95390 300 ft 2 kts 192°
2026-05-06 16:36 37.94212 23.95391 302 ft 2 kts 173°
2026-05-06 16:36 37.94224 23.95387 300 ft 2 kts 154°
2026-05-06 16:37 37.94235 23.95378 302 ft 2 kts 135°
2026-05-06 16:37 37.94240 23.95371 301 ft 0 kts 125°
2026-05-06 16:40 37.94237 23.95376 300 ft 3 kts 124°
2026-05-06 16:40 37.94216 23.95414 302 ft 8 kts 126°
2026-05-06 16:41 37.94174 23.95486 302 ft 11 kts 127°
2026-05-06 16:41 37.94127 23.95563 300 ft 11 kts 128°
2026-05-06 16:41 37.94083 23.95642 298 ft 11 kts 109°
2026-05-06 16:41 37.94117 23.95725 296 ft 11 kts 37°
2026-05-06 16:42 37.94175 23.95780 298 ft 10 kts 37°
2026-05-06 16:42 37.94227 23.95830 299 ft 9 kts 37°
2026-05-06 16:42 37.94274 23.95874 299 ft 9 kts 36°
2026-05-06 16:42 37.94341 23.95936 299 ft 15 kts 36°
2026-05-06 16:43 37.94438 23.96029 301 ft 20 kts 38°
2026-05-06 16:43 37.94561 23.96146 299 ft 24 kts 37°
2026-05-06 16:43 37.94696 23.96274 302 ft 24 kts 36°
2026-05-06 16:43 37.94826 23.96398 300 ft 23 kts 37°
2026-05-06 16:44 37.94951 23.96515 301 ft 22 kts 37°
2026-05-06 16:44 37.95068 23.96627 304 ft 21 kts 37°
2026-05-06 16:44 37.95182 23.96735 303 ft 20 kts 37°
2026-05-06 16:44 37.95291 23.96838 303 ft 19 kts 37°
2026-05-06 16:45 37.95385 23.96935 302 ft 13 kts 59°
2026-05-06 16:45 37.95363 23.97011 304 ft 8 kts 154°
2026-05-06 16:45 37.95351 23.97016 305 ft 0 kts 170°
2026-05-06 16:46 37.95349 23.97016 305 ft 1 kts 170°
2026-05-06 16:46 37.95329 23.97020 308 ft 5 kts 170°
2026-05-06 16:47 37.95269 23.97033 309 ft 15 kts 172°
2026-05-06 16:47 37.95130 23.96966 310 ft 35 kts 217°
2026-05-06 16:47 37.94785 23.96637 300 ft 91 kts 217°
2026-05-06 16:47 37.94132 23.96018 298 ft 137 kts 217°
2026-05-06 16:48 37.93377 23.95299 599 ft 147 kts 217°
2026-05-06 16:48 37.92529 23.94480 935 ft 158 kts 217°
2026-05-06 16:48 37.91607 23.93663 1290 ft 167 kts 206°
2026-05-06 16:48 37.90485 23.93215 1655 ft 172 kts 197°
2026-05-06 16:49 37.89339 23.92709 2034 ft 177 kts 202°
2026-05-06 16:49 37.88192 23.92092 2414 ft 181 kts 205°
2026-05-06 16:49 37.87054 23.91377 2784 ft 184 kts 210°
2026-05-06 16:49 37.85919 23.90568 3121 ft 193 kts 211°
2026-05-06 16:50 37.84708 23.89675 3394 ft 212 kts 212°
2026-05-06 16:50 37.83385 23.88688 3714 ft 228 kts 212°
2026-05-06 16:50 37.81961 23.87668 4078 ft 242 kts 210°
2026-05-06 16:50 37.80969 23.86980 4328 ft 250 kts 210°
2026-05-06 16:51 37.78871 23.85511 4832 ft 265 kts 212°
2026-05-06 16:51 37.77266 23.84329 5256 ft 274 kts 211°
2026-05-06 16:51 37.75602 23.83134 5882 ft 274 kts 211°
2026-05-06 16:51 37.73942 23.81991 6611 ft 270 kts 209°
2026-05-06 16:52 37.72290 23.80904 7307 ft 265 kts 214°
2026-05-06 16:52 37.71063 23.79268 8052 ft 254 kts 248°
2026-05-06 16:52 37.70714 23.77163 8826 ft 242 kts 279°
2026-05-06 16:52 37.71259 23.75244 9624 ft 230 kts 310°
2026-05-06 16:53 37.72440 23.73967 10395 ft 221 kts 326°
2026-05-06 16:53 37.73527 23.72627 11125 ft 218 kts 305°
2026-05-06 16:53 37.74210 23.70944 11847 ft 213 kts 296°
2026-05-06 16:53 37.74740 23.69217 12580 ft 209 kts 293°
2026-05-06 16:54 37.75160 23.67485 13322 ft 202 kts 290°
2026-05-06 16:54 37.75521 23.65808 14047 ft 192 kts 291°
2026-05-06 16:54 37.75887 23.64212 14562 ft 191 kts 292°
2026-05-06 16:54 37.76330 23.62529 14676 ft 212 kts 293°
2026-05-06 16:55 37.76801 23.60668 14823 ft 233 kts 291°
2026-05-06 16:55 37.77294 23.58648 14984 ft 253 kts 291°
2026-05-06 16:55 37.77835 23.56429 15137 ft 275 kts 291°
2026-05-06 16:55 37.78407 23.54035 15286 ft 294 kts 290°
2026-05-06 16:56 37.79019 23.51505 15584 ft 304 kts 290°
2026-05-06 16:56 37.79644 23.48936 15947 ft 310 kts 290°
2026-05-06 16:56 37.80281 23.46341 16540 ft 307 kts 290°
2026-05-06 16:56 37.80896 23.43769 17190 ft 303 kts 290°
2026-05-06 16:57 37.81496 23.41245 17880 ft 297 kts 290°
2026-05-06 16:57 37.82111 23.38785 18559 ft 289 kts 292°
2026-05-06 16:57 37.82722 23.36393 19195 ft 282 kts 291°
2026-05-06 16:57 37.83287 23.34084 19837 ft 274 kts 291°
2026-05-06 16:58 37.83838 23.31810 20505 ft 266 kts 291°
2026-05-06 16:58 37.84363 23.29612 21176 ft 257 kts 291°
2026-05-06 16:58 37.84864 23.27483 21868 ft 247 kts 291°
2026-05-06 16:58 37.85350 23.25449 22567 ft 235 kts 292°
2026-05-06 16:59 37.85809 23.23514 23276 ft 222 kts 292°
2026-05-06 16:59 37.86259 23.21653 23666 ft 222 kts 293°
2026-05-06 16:59 37.86730 23.19762 23832 ft 229 kts 293°
2026-05-06 16:59 37.87222 23.17806 23916 ft 238 kts 292°
2026-05-06 17:00 37.87729 23.15759 23977 ft 249 kts 292°
2026-05-06 17:00 37.88263 23.13616 24007 ft 261 kts 292°
2026-05-06 17:00 37.88816 23.11380 24027 ft 272 kts 292°
2026-05-06 17:00 37.89377 23.09049 24035 ft 282 kts 291°
2026-05-06 17:01 37.89942 23.06630 24037 ft 291 kts 291°
2026-05-06 17:01 37.90337 23.04983 24029 ft 297 kts 291°
2026-05-06 17:01 37.90951 23.02454 24027 ft 305 kts 291°
2026-05-06 17:01 37.91589 22.99850 24025 ft 313 kts 291°
2026-05-06 17:02 37.92207 22.97163 24017 ft 322 kts 290°
2026-05-06 17:02 37.92850 22.94408 24017 ft 330 kts 291°
2026-05-06 17:02 37.93809 22.91773 24025 ft 332 kts 305°
2026-05-06 17:02 37.95150 22.89357 24022 ft 339 kts 308°
2026-05-06 17:03 37.96591 22.86935 24013 ft 347 kts 309°
2026-05-06 17:03 37.98075 22.84487 24007 ft 354 kts 309°
2026-05-06 17:03 37.99549 22.81947 24004 ft 362 kts 307°
2026-05-06 17:03 38.00971 22.79277 23998 ft 369 kts 305°
2026-05-06 17:04 38.02407 22.76538 23996 ft 376 kts 306°
2026-05-06 17:04 38.03893 22.73825 23995 ft 382 kts 306°
2026-05-06 17:04 38.05424 22.71059 23992 ft 384 kts 307°
2026-05-06 17:04 38.06969 22.68286 23992 ft 386 kts 307°
2026-05-06 17:05 38.08498 22.65545 23980 ft 372 kts 307°
2026-05-06 17:05 38.09964 22.62914 23974 ft 360 kts 306°
2026-05-06 17:05 38.11347 22.60298 23975 ft 352 kts 305°
2026-05-06 17:05 38.12715 22.57758 23970 ft 344 kts 306°
2026-05-06 17:06 38.14071 22.55295 23970 ft 337 kts 307°
2026-05-06 17:06 38.15411 22.52876 23971 ft 333 kts 307°
2026-05-06 17:06 38.16736 22.50490 23972 ft 328 kts 307°
2026-05-06 17:06 38.18031 22.48120 23972 ft 324 kts 305°
2026-05-06 17:07 38.19275 22.45756 23977 ft 319 kts 306°
2026-05-06 17:07 38.20541 22.43440 23978 ft 319 kts 307°
2026-05-06 17:07 38.21817 22.41133 23978 ft 319 kts 307°
2026-05-06 17:07 38.23078 22.38850 23987 ft 319 kts 306°
2026-05-06 17:08 38.24316 22.36500 23992 ft 320 kts 305°
2026-05-06 17:08 38.25577 22.34169 23994 ft 320 kts 306°
2026-05-06 17:08 38.26856 22.31853 23994 ft 320 kts 306°
2026-05-06 17:08 38.28130 22.29521 23994 ft 321 kts 306°
2026-05-06 17:09 38.29400 22.27182 23995 ft 321 kts 306°
2026-05-06 17:09 38.30652 22.24831 23998 ft 321 kts 305°
2026-05-06 17:09 38.31910 22.22479 23997 ft 322 kts 306°
2026-05-06 17:09 38.33178 22.20123 23998 ft 322 kts 306°
2026-05-06 17:10 38.34445 22.17775 23995 ft 322 kts 306°
2026-05-06 17:10 38.35716 22.15423 24001 ft 322 kts 306°
2026-05-06 17:10 38.36992 22.13070 23998 ft 323 kts 306°
2026-05-06 17:10 38.38268 22.10718 23995 ft 323 kts 306°
2026-05-06 17:11 38.39545 22.08363 23995 ft 323 kts 306°
2026-05-06 17:11 38.40822 22.06008 23990 ft 323 kts 306°
2026-05-06 17:11 38.42086 22.03641 23970 ft 323 kts 305°
2026-05-06 17:11 38.43342 22.01267 23996 ft 322 kts 306°
2026-05-06 17:12 38.44595 21.98941 24002 ft 322 kts 306°
2026-05-06 17:12 38.45887 21.96560 24002 ft 322 kts 306°
2026-05-06 17:12 38.47146 21.94237 24008 ft 322 kts 305°
2026-05-06 17:12 38.48385 21.91846 24026 ft 323 kts 304°
2026-05-06 17:13 38.49650 21.89474 24007 ft 323 kts 305°
2026-05-06 17:13 38.50931 21.87112 24008 ft 324 kts 306°
2026-05-06 17:13 38.52217 21.84756 23974 ft 323 kts 306°
2026-05-06 17:13 38.53473 21.82369 24001 ft 323 kts 304°
2026-05-06 17:14 38.54709 21.79983 24001 ft 323 kts 305°
2026-05-06 17:14 38.55983 21.77619 24013 ft 323 kts 306°
2026-05-06 17:14 38.57263 21.75259 23991 ft 323 kts 305°
2026-05-06 17:14 38.58533 21.72890 24001 ft 323 kts 305°
2026-05-06 17:15 38.59798 21.70520 24003 ft 323 kts 305°
2026-05-06 17:15 38.61061 21.68150 23983 ft 323 kts 304°
2026-05-06 17:15 38.62299 21.65761 23980 ft 322 kts 304°
2026-05-06 17:15 38.63556 21.63384 23996 ft 322 kts 304°
2026-05-06 17:16 38.64817 21.61018 24006 ft 321 kts 305°
2026-05-06 17:16 38.66082 21.58659 23986 ft 321 kts 305°
2026-05-06 17:16 38.67348 21.56305 23973 ft 322 kts 304°
2026-05-06 17:16 38.68636 21.53896 23620 ft 331 kts 304°
2026-05-06 17:17 38.69915 21.51457 23344 ft 328 kts 303°
2026-05-06 17:17 38.71144 21.49010 23056 ft 326 kts 304°
2026-05-06 17:17 38.72405 21.46602 22763 ft 324 kts 304°
2026-05-06 17:17 38.73654 21.44246 22489 ft 323 kts 304°
2026-05-06 17:18 38.74911 21.41881 22201 ft 321 kts 304°
2026-05-06 17:18 38.76167 21.39518 21905 ft 319 kts 304°
2026-05-06 17:18 38.77415 21.37174 21626 ft 318 kts 304°
2026-05-06 17:18 38.78660 21.34838 21354 ft 316 kts 304°
2026-05-06 17:19 38.79899 21.32519 21071 ft 315 kts 304°
2026-05-06 17:19 38.81102 21.30177 20796 ft 313 kts 303°
2026-05-06 17:19 38.82298 21.27848 20519 ft 312 kts 304°
2026-05-06 17:19 38.83511 21.25545 20252 ft 311 kts 304°
2026-05-06 17:20 38.84724 21.23255 19997 ft 310 kts 304°
2026-05-06 17:20 38.85931 21.20974 19738 ft 309 kts 304°
2026-05-06 17:20 38.87134 21.18708 19396 ft 306 kts 305°
2026-05-06 17:20 38.88324 21.16438 18944 ft 307 kts 303°
2026-05-06 17:21 38.89470 21.14164 18500 ft 307 kts 304°
2026-05-06 17:21 38.90659 21.11878 17978 ft 308 kts 304°
2026-05-06 17:21 38.91861 21.09587 17440 ft 310 kts 304°
2026-05-06 17:21 38.93072 21.07289 16897 ft 311 kts 304°
2026-05-06 17:22 38.94289 21.04980 16381 ft 313 kts 304°
2026-05-06 17:22 38.95508 21.02662 15852 ft 314 kts 304°
2026-05-06 17:22 38.96732 21.00331 15357 ft 315 kts 304°
2026-05-06 17:22 38.97953 20.97990 14846 ft 316 kts 308°
2026-05-06 17:23 38.99597 20.96146 14364 ft 316 kts 333°
2026-05-06 17:23 39.01697 20.95395 13894 ft 317 kts 356°
2026-05-06 17:23 39.03910 20.95430 13359 ft 318 kts 359°
2026-05-06 17:23 39.06113 20.95292 12823 ft 316 kts 353°
2026-05-06 17:24 39.08288 20.94941 12291 ft 313 kts 350°
2026-05-06 17:24 39.10424 20.94459 11763 ft 311 kts 349°
2026-05-06 17:24 39.12540 20.93962 11317 ft 306 kts 349°
2026-05-06 17:24 39.14613 20.93517 11023 ft 298 kts 350°
2026-05-06 17:25 39.16633 20.93123 10731 ft 290 kts 351°
2026-05-06 17:25 39.18610 20.92731 10435 ft 284 kts 350°
2026-05-06 17:25 39.20544 20.92339 10139 ft 279 kts 350°
2026-05-06 17:25 39.22447 20.91957 9830 ft 274 kts 350°
2026-05-06 17:26 39.24319 20.91578 9509 ft 270 kts 350°
2026-05-06 17:26 39.26143 20.91214 9205 ft 267 kts 350°
2026-05-06 17:26 39.27960 20.90822 8895 ft 263 kts 349°
2026-05-06 17:26 39.29763 20.90439 8587 ft 263 kts 350°
2026-05-06 17:27 39.31580 20.90069 8291 ft 265 kts 350°
2026-05-06 17:27 39.33405 20.89708 8015 ft 266 kts 350°
2026-05-06 17:27 39.35239 20.89328 7752 ft 267 kts 348°
2026-05-06 17:27 39.37076 20.88897 7498 ft 269 kts 349°
2026-05-06 17:28 39.38928 20.88507 7234 ft 270 kts 350°
2026-05-06 17:28 39.40786 20.88130 6951 ft 271 kts 350°
2026-05-06 17:28 39.42654 20.87766 6667 ft 272 kts 354°
2026-05-06 17:28 39.44511 20.88103 6359 ft 274 kts 24°
2026-05-06 17:29 39.46083 20.89474 6075 ft 274 kts 38°
2026-05-06 17:29 39.47568 20.91028 5804 ft 274 kts 38°
2026-05-06 17:29 39.49057 20.92568 5535 ft 275 kts 38°
2026-05-06 17:29 39.50549 20.94121 5257 ft 275 kts 38°
2026-05-06 17:30 39.52074 20.95619 4972 ft 273 kts 30°
2026-05-06 17:30 39.53842 20.96362 4701 ft 267 kts 360°
2026-05-06 17:30 39.55612 20.95833 4491 ft 262 kts 329°
2026-05-06 17:30 39.57019 20.94393 4249 ft 256 kts 315°
2026-05-06 17:31 39.58294 20.92836 3968 ft 244 kts 319°
2026-05-06 17:31 39.59577 20.91531 3677 ft 223 kts 322°
2026-05-06 17:31 39.60755 20.90463 3426 ft 192 kts 326°
2026-05-06 17:31 39.61811 20.89578 3219 ft 168 kts 327°
2026-05-06 17:32 39.62781 20.88821 2998 ft 158 kts 329°
2026-05-06 17:32 39.63699 20.88124 2811 ft 152 kts 329°
2026-05-06 17:32 39.64582 20.87405 2643 ft 149 kts 325°
2026-05-06 17:32 39.65413 20.86611 2475 ft 146 kts 322°
2026-05-06 17:33 39.66184 20.85815 2327 ft 138 kts 322°
2026-05-06 17:33 39.66928 20.85068 2139 ft 133 kts 321°
2026-05-06 17:33 39.67646 20.84325 1957 ft 132 kts 321°
2026-05-06 17:33 39.68378 20.83572 1764 ft 138 kts 324°
2026-05-06 17:34 39.69134 20.82803 1591 ft 132 kts 322°
2026-05-06 17:34 39.69793 20.82131 1570 ft 110 kts 322°
2026-05-06 17:34 39.70317 20.81594 1563 ft 70 kts 321°
2026-05-06 17:34 39.70519 20.81390 1565 ft 16 kts 331°
2026-05-06 17:35 39.70553 20.81334 1565 ft 9 kts 187°
2026-05-06 17:35 39.70519 20.81383 1565 ft 7 kts 135°
2026-05-06 17:35 39.70484 20.81422 1565 ft 7 kts 141°
2026-05-06 17:36 39.70355 20.81555 1563 ft 19 kts 142°
2026-05-06 17:36 39.70239 20.81674 1564 ft 24 kts 142°
2026-05-06 17:36 39.70093 20.81823 1565 ft 29 kts 142°
2026-05-06 17:36 39.69943 20.81959 1566 ft 23 kts 173°
2026-05-06 17:37 39.69832 20.81868 1564 ft 18 kts 190°
2026-05-06 17:37 39.69726 20.81937 1564 ft 17 kts 142°
2026-05-06 17:37 39.69633 20.82031 1564 ft 17 kts 142°
2026-05-06 17:37 39.69544 20.82114 1564 ft 13 kts 169°
2026-05-06 17:38 39.69495 20.82069 1564 ft 5 kts 231°
2026-05-06 17:38 39.69487 20.82057 1564 ft 0 kts 230°
2026-05-06 17:39 39.69483 20.82051 1564 ft 1 kts 230°
2026-05-06 17:40 39.69480 20.82046 1564 ft 0 kts 230°
2026-05-06 17:46 39.69480 20.82047 1564 ft 0 kts 230°